GW2930 Weather Reports


time (UTC)temp
C
wind
direction
speed
KPH
gust
KPH
rain 1hr
cm
rain 24hr
cm
rain mn
cm
humidity
%
barometer
mb
20260506061848 13 243 3.2 11.3 0.00 0.00 0.00 90 1019.2
20260506061345 13 210 3.2 8.0 0.00 0.00 0.00 90 1019.2
20260506060843 13 222 3.2 8.0 0.00 0.00 0.00 90 1019.3
20260506060341 13 222 1.6 8.0 0.00 0.00 0.00 90 1019.2
20260506051313 13 232 3.2 8.0 0.00 0.00 0.00 88 1019.0
20260506050811 13 254 1.6 9.7 0.00 0.00 0.00 88 1019.0
20260506050308 13 233 1.6 6.4 0.00 0.00 0.00 88 1018.8
20260506044758 13 229 0.0 8.0 0.00 0.00 0.00 88 1018.8
20260506044256 13 231 3.2 6.4 0.00 0.00 0.00 88 1018.7
20260506043753 13 222 0.0 8.0 0.00 0.00 0.00 88 1018.5
20260506043250 13 252 3.2 11.3 0.00 0.00 0.00 88 1018.7
20260506042749 13 239 3.2 9.7 0.00 0.00 0.00 88 1018.7
20260506042247 13 248 1.6 8.0 0.00 0.00 0.00 87 1018.7
20260506041745 13 232 3.2 6.4 0.00 0.00 0.00 88 1018.6
20260506041242 13 236 1.6 8.0 0.00 0.00 0.00 87 1018.6
20260506040739 13 225 3.2 9.7 0.00 0.00 0.00 87 1018.7
20260506040236 13 242 0.0 8.0 0.00 0.00 0.00 88 1018.7
20260506035733 13 207 0.0 8.0 0.00 0.00 0.00 88 1018.4
20260506035230 13 269 0.0 8.0 0.00 0.00 0.00 88 1018.3
20260506034727 13 232 1.6 6.4 0.00 0.00 0.00 88 1018.3
20260506034224 13 228 1.6 6.4 0.00 0.00 0.00 88 1018.4
20260506033721 13 222 3.2 6.4 0.00 0.00 0.00 89 1018.3
20260506033218 13 222 4.8 6.4 0.00 0.00 0.00 89 1018.1
20260506032715 13 231 0.0 4.8 0.00 0.00 0.00 89 1018.3
20260506032212 13 40 3.2 6.4 0.00 0.00 0.00 89 1018.2
20260506031709 13 228 3.2 6.4 0.00 0.00 0.00 89 1018.1
20260506031206 13 212 0.0 6.4 0.00 0.00 0.00 88 1017.9
20260506030704 13 238 3.2 4.8 0.00 0.00 0.00 88 1018.0
20260506030201 13 241 3.2 4.8 0.00 0.00 0.00 88 1017.5
20260506025658 13 186 0.0 9.7 0.00 0.00 0.00 88 1017.7
20260506025154 13 231 3.2 8.0 0.00 0.00 0.00 87 1017.6
20260506024646 13 227 1.6 6.4 0.00 0.00 0.00 87 1017.6
20260506024142 14 220 0.0 6.4 0.00 0.00 0.00 87 1017.8
20260506023638 14 172 0.0 4.8 0.00 0.00 0.00 86 1017.7
20260506023136 14 236 1.6 6.4 0.00 0.00 0.00 86 1017.9
20260506022633 14 267 3.2 4.8 0.00 0.00 0.00 86 1017.9
20260506022130 14 252 6.4 8.0 0.00 0.00 0.00 85 1018.0
20260506021628 14 265 1.6 11.3 0.00 0.00 0.00 85 1017.5
20260506021125 15 283 0.0 6.4 0.00 0.00 0.00 84 1017.8
20260506020622 15 48 0.0 8.0 0.00 0.00 0.00 83 1017.6
20260506020120 15 238 3.2 16.1 0.00 0.00 0.00 82 1017.8
20260506015617 15 296 1.6 6.4 0.00 0.00 0.00 82 1017.6
20260506015114 15 221 3.2 8.0 0.00 0.00 0.00 82 1017.7
20260506014612 15 298 0.0 6.4 0.00 0.00 0.00 82 1017.6
20260506014107 15 201 1.6 8.0 0.00 0.00 0.00 81 1017.6
20260506013605 15 256 3.2 9.7 0.00 0.00 0.00 81 1017.7
20260506013102 15 268 1.6 8.0 0.00 0.00 0.00 81 1017.6
20260506012558 15 239 0.0 8.0 0.00 0.00 0.00 80 1017.3
20260506012055 15 247 3.2 8.0 0.00 0.00 0.00 80 1017.3
20260506011553 15 167 1.6 11.3 0.00 0.00 0.00 81 1017.4
20260506011048 15 298 4.8 6.4 0.00 0.00 0.00 80 1017.6
20260506010548 15 249 3.2 8.0 0.00 0.00 0.00 80 1017.5
20260506010044 16 195 3.2 4.8 0.00 0.00 0.00 79 1017.5
20260506005541 15 260 4.8 6.4 0.00 0.00 0.00 79 1017.6
20260506005037 15 263 4.8 8.0 0.00 0.00 0.00 78 1017.4
20260506004535 15 230 1.6 11.3 0.00 0.00 0.00 77 1017.6
20260506004031 16 334 3.2 11.3 0.00 0.00 0.00 77 1017.4
20260506003528 16 284 3.2 9.7 0.00 0.00 0.00 77 1017.3
20260506003024 16 232 3.2 11.3 0.00 0.00 0.00 76 1017.4
20260506002520 16 118 1.6 6.4 0.00 0.00 0.00 76 1017.4
20260506002016 16 154 0.0 14.5 0.00 0.00 0.00 75 1017.4
20260506001512 16 326 4.8 14.5 0.00 0.00 0.00 74 1017.3
20260506001010 17 313 3.2 14.5 0.00 0.00 0.00 73 1017.3
20260506000507 17 299 8.0 16.1 0.00 0.00 0.00 72 1017.2
20260506000004 17 260 4.8 11.3 0.00 0.00 0.00 72 1017.2
20260505235502 17 258 0.0 12.9 0.00 0.00 0.00 72 1017.1
20260505234959 17 278 3.2 11.3 0.00 0.00 0.00 72 1017.1
20260505234456 17 245 9.7 14.5 0.00 0.00 0.00 71 1017.3
20260505233953 17 299 8.0 12.9 0.00 0.00 0.00 69 1017.2
20260505233450 17 12 3.2 19.3 0.00 0.00 0.00 70 1017.1
20260505232947 18 26 6.4 14.5 0.00 0.00 0.00 68 1017.1
20260505232446 18 24 3.2 8.0 0.00 0.00 0.00 68 1017.3
20260505231942 18 307 3.2 14.5 0.00 0.00 0.00 67 1017.2
20260505231440 19 165 3.2 11.3 0.00 0.00 0.00 66 1017.2
20260505230938 19 355 4.8 11.3 0.00 0.00 0.00 66 1017.1
20260505230435 18 223 0.0 14.5 0.00 0.00 0.00 69 1017.2
20260505225931 18 346 3.2 19.3 0.00 0.00 0.00 71 1016.9
20260505225429 18 332 4.8 12.9 0.00 0.00 0.00 71 1017.2
20260505224924 18 244 8.0 16.1 0.00 0.00 0.00 70 1017.2
20260505224421 17 218 3.2 8.0 0.00 0.00 0.00 72 1017.4
20260505223918 17 38 1.6 12.9 0.00 0.00 0.00 72 1017.3
20260505223416 19 188 3.2 11.3 0.00 0.00 0.00 67 1017.4
20260505222912 19 321 4.8 8.0 0.00 0.00 0.00 68 1017.5
20260505222408 18 279 3.2 16.1 0.00 0.00 0.00 71 1017.3
20260505221904 17 304 3.2 14.5 0.00 0.00 0.00 71 1017.4
20260505221401 18 261 8.0 14.5 0.00 0.00 0.00 72 1017.5
20260505220858 17 282 6.4 14.5 0.00 0.00 0.00 73 1017.3
20260505220355 17 288 4.8 22.5 0.00 0.00 0.00 73 1017.3
20260505215853 17 334 6.4 17.7 0.00 0.00 0.00 73 1017.5
20260505215351 17 245 1.6 14.5 0.00 0.00 0.00 75 1017.6
20260505214849 17 252 1.6 9.7 0.00 0.00 0.00 74 1017.4
20260505214346 17 224 4.8 12.9 0.00 0.00 0.00 73 1017.4
20260505213843 17 287 4.8 14.5 0.00 0.00 0.00 74 1017.3
20260505213341 17 282 6.4 14.5 0.00 0.00 0.00 75 1017.5
20260505212837 17 203 3.2 17.7 0.00 0.00 0.00 75 1017.7
20260505212334 17 261 4.8 14.5 0.00 0.00 0.00 74 1017.7
20260505211830 17 252 6.4 19.3 0.00 0.00 0.00 74 1017.6
20260505211328 17 315 3.2 14.5 0.00 0.00 0.00 73 1017.9
20260505210824 17 300 3.2 9.7 0.00 0.00 0.00 73 1017.6
20260505210321 17 275 6.4 12.9 0.00 0.00 0.00 71 1017.7
20260505205818 17 279 0.0 19.3 0.00 0.00 0.00 73 1017.7
20260505205316 17 255 4.8 14.5 0.00 0.00 0.00 73 1017.6
20260505204812 18 317 4.8 16.1 0.00 0.00 0.00 71 1017.6
20260505204311 17 134 1.6 11.3 0.00 0.00 0.00 71 1017.6
20260505203808 17 300 3.2 16.1 0.00 0.00 0.00 72 1017.5
20260505203304 17 326 4.8 14.5 0.00 0.00 0.00 71 1017.4
20260505202800 17 336 6.4 16.1 0.00 0.00 0.00 71 1017.7
20260505202256 17 229 4.8 14.5 0.00 0.00 0.00 72 1017.7
20260505201753 17 214 3.2 11.3 0.00 0.00 0.00 71 1017.6
20260505201251 17 239 0.0 9.7 0.00 0.00 0.00 72 1017.7
20260505200749 17 280 0.0 9.7 0.00 0.00 0.00 72 1017.8
20260505200246 17 324 3.2 16.1 0.00 0.00 0.00 72 1017.7
20260505195741 17 350 0.0 19.3 0.00 0.00 0.00 72 1017.8
20260505195239 16 277 0.0 9.7 0.00 0.00 0.00 74 1017.7
20260505194736 17 273 1.6 12.9 0.00 0.00 0.00 72 1017.8
20260505194232 17 207 0.0 9.7 0.00 0.00 0.00 72 1017.8
20260505193728 16 288 4.8 14.5 0.00 0.00 0.00 74 1017.8
20260505193226 16 301 3.2 16.1 0.00 0.00 0.00 76 1017.9
20260505192724 16 262 6.4 11.3 0.00 0.00 0.00 76 1017.8
20260505192222 16 186 4.8 14.5 0.00 0.00 0.00 76 1018.0
20260505191720 16 316 3.2 9.7 0.00 0.00 0.00 75 1018.1
20260505191218 16 242 4.8 12.9 0.00 0.00 0.00 74 1017.9
20260505190714 16 322 4.8 8.0 0.00 0.00 0.00 75 1017.7
20260505190213 16 333 3.2 6.4 0.00 0.00 0.00 77 1018.1
20260505185710 15 124 0.0 11.3 0.00 0.00 0.00 78 1018.1
20260505185207 15 264 6.4 12.9 0.00 0.00 0.00 79 1018.0
20260505184703 15 100 0.0 6.4 0.00 0.00 0.00 79 1018.0
20260505184201 15 359 1.6 8.0 0.00 0.00 0.00 78 1018.1
20260505183657 16 242 4.8 8.0 0.00 0.00 0.00 77 1018.1
20260505183155 16 233 0.0 11.3 0.00 0.00 0.00 77 1018.1
20260505182650 15 135 0.0 4.8 0.00 0.00 0.00 78 1017.9
20260505182148 15 74 0.0 8.0 0.00 0.00 0.00 78 1018.0
20260505181644 15 111 1.6 11.3 0.00 0.00 0.00 78 1018.0
20260505181142 15 317 3.2 6.4 0.00 0.00 0.00 77 1017.8
20260505180638 15 289 1.6 4.8 0.00 0.00 0.00 78 1017.7
20260505180135 15 276 3.2 11.3 0.00 0.00 0.00 79 1017.6
20260505175631 15 269 0.0 9.7 0.00 0.00 0.00 79 1017.5
20260505175128 15 211 3.2 11.3 0.00 0.00 0.00 79 1017.5
20260505174624 15 240 4.8 11.3 0.00 0.00 0.00 79 1017.4
20260505174120 14 278 0.0 8.0 0.00 0.00 0.00 81 1017.1
20260505173617 14 242 6.4 11.3 0.00 0.00 0.00 83 1017.4
20260505173115 13 218 6.4 9.7 0.00 0.00 0.00 84 1017.4
20260505172612 13 183 3.2 8.0 0.00 0.00 0.00 85 1017.4
20260505172109 13 287 3.2 9.7 0.00 0.00 0.00 86 1017.3
20260505171603 13 289 3.2 9.7 0.00 0.00 0.00 86 1017.3
20260505171100 13 47 0.0 8.0 0.00 0.00 0.00 86 1017.4
20260505170557 13 204 3.2 11.3 0.00 0.00 0.00 86 1017.2
20260505170053 13 105 3.2 8.0 0.00 0.00 0.00 86 1017.2
20260505165548 13 292 1.6 6.4 0.00 0.00 0.00 86 1017.5
20260505165045 13 2 0.0 8.0 0.00 0.00 0.00 86 1017.7
20260505164541 13 298 3.2 6.4 0.00 0.00 0.00 86 1017.4
20260505164038 13 237 0.0 8.0 0.00 0.00 0.00 85 1017.2
20260505163537 13 225 3.2 6.4 0.00 0.00 0.00 84 1017.1
20260505163033 13 277 8.0 11.3 0.00 0.00 0.00 82 1017.1
20260505162526 13 305 6.4 8.0 0.00 0.00 0.00 81 1017.3
20260505162024 13 264 6.4 9.7 0.00 0.00 0.00 80 1016.9
20260505161520 13 208 3.2 8.0 0.00 0.00 0.00 80 1016.7
20260505161017 13 236 3.2 6.4 0.00 0.00 0.00 79 1016.8
20260505160515 13 29 0.0 8.0 0.00 0.00 0.00 80 1016.7
20260505152946 13 299 0.0 9.7 0.00 0.00 0.00 81 1016.7
20260505152443 13 247 4.8 11.3 0.00 0.00 0.00 82 1016.8
20260505151938 13 246 4.8 9.7 0.00 0.00 0.00 83 1016.7
20260505151434 13 212 3.2 8.0 0.00 0.00 0.00 83 1016.8
20260505150931 13 218 6.4 9.7 0.00 0.00 0.00 83 1016.8
20260505150428 13 223 4.8 9.7 0.00 0.00 0.00 83 1016.9
20260505140358 11 219 4.8 9.7 0.00 0.00 0.00 89 1016.0
20260505124812 11 214 3.2 8.0 0.00 0.00 0.00 90 1015.9
20260505124308 11 283 1.6 9.7 0.00 0.00 0.00 90 1016.1
20260505123804 11 221 3.2 11.3 0.00 0.00 0.00 90 1016.1
20260505123301 11 197 4.8 8.0 0.00 0.00 0.00 90 1015.9
20260505122757 11 207 3.2 9.7 0.00 0.00 0.00 90 1016.1
20260505122255 11 202 6.4 9.7 0.00 0.00 0.00 90 1015.8
20260505121751 11 205 4.8 6.4 0.00 0.00 0.00 90 1016.1
20260505121248 11 180 1.6 9.7 0.00 0.00 0.00 91 1016.1
20260505120744 11 235 3.2 8.0 0.00 0.00 0.00 91 1015.9
20260505120241 11 109 0.0 6.4 0.00 0.00 0.00 92 1016.0
20260505115739 11 219 4.8 9.7 0.00 0.00 0.00 92 1015.9
20260505115237 11 207 3.2 8.0 0.00 0.00 0.00 92 1015.5
20260505114734 11 210 4.8 11.3 0.00 0.00 0.00 92 1015.7
20260505114230 11 196 3.2 9.7 0.00 0.00 0.00 92 1015.9
20260505113727 11 205 1.6 6.4 0.00 0.00 0.00 92 1015.8
20260505113224 11 227 4.8 9.7 0.00 0.00 0.00 92 1015.9
20260505112720 11 191 4.8 11.3 0.00 0.00 0.00 92 1015.7
20260505112218 11 241 4.8 9.7 0.00 0.00 0.00 93 1015.8
20260505111717 11 206 4.8 8.0 0.00 0.00 0.00 94 1015.7
20260505111214 11 218 3.2 6.4 0.00 0.00 0.00 94 1015.8
20260505110709 11 206 3.2 8.0 0.00 0.00 0.00 94 1015.8
20260505110207 11 246 0.0 9.7 0.00 0.00 0.00 95 1015.8
20260505102142 11 223 4.8 9.7 0.00 0.00 0.00 95 1016.0
20260505101641 11 219 3.2 8.0 0.00 0.00 0.00 95 1015.6
20260505101137 11 211 4.8 8.0 0.00 0.00 0.00 95 1016.0
20260505100633 11 210 0.0 8.0 0.00 0.00 0.00 95 1015.8
20260505100130 11 215 3.2 9.7 0.00 0.00 0.00 95 1015.8
20260505095626 11 210 3.2 8.0 0.00 0.00 0.00 95 1016.1
20260505095123 11 209 4.8 9.7 0.00 0.00 0.00 94 1015.9
20260505094620 11 226 0.0 8.0 0.00 0.00 0.00 94 1016.1
20260505094116 11 220 0.0 9.7 0.00 0.00 0.00 94 1016.1
20260505093613 11 240 0.0 6.4 0.00 0.00 0.00 94 1016.0
20260505093110 11 205 0.0 8.0 0.00 0.00 0.00 94 1016.3
20260505092607 11 222 1.6 8.0 0.00 0.00 0.00 94 1016.1
20260505092106 11 216 3.2 8.0 0.00 0.00 0.00 94 1016.1
20260505091602 11 234 3.2 9.7 0.00 0.00 0.00 94 1016.2
20260505091100 11 215 4.8 8.0 0.00 0.00 0.00 94 1016.3
20260505090558 11 240 0.0 8.0 0.00 0.00 0.00 93 1016.3
20260505090056 11 205 4.8 9.7 0.00 0.00 0.00 93 1016.2
20260505085553 11 230 1.6 9.7 0.00 0.00 0.00 93 1016.1
20260505085051 11 216 4.8 8.0 0.00 0.00 0.00 93 1016.2
20260505084549 11 223 3.2 8.0 0.00 0.00 0.00 93 1016.1
20260505084047 11 200 3.2 8.0 0.00 0.00 0.00 93 1016.3
20260505083543 11 199 1.6 9.7 0.00 0.00 0.00 93 1016.3
20260505083040 11 211 4.8 9.7 0.00 0.00 0.00 93 1016.3
20260505082536 11 209 0.0 8.0 0.00 0.00 0.00 93 1016.3
20260505082033 11 211 4.8 9.7 0.00 0.00 0.00 93 1016.4
20260505081529 11 216 4.8 8.0 0.00 0.00 0.00 93 1016.7
20260505081027 11 211 3.2 11.3 0.00 0.00 0.00 93 1016.5
20260505080523 11 214 6.4 9.7 0.00 0.00 0.00 93 1016.6
20260505080020 11 223 1.6 8.0 0.00 0.00 0.00 93 1016.5
20260505075516 11 210 6.4 8.0 0.00 0.00 0.00 93 1016.7
20260505075013 11 211 1.6 6.4 0.00 0.00 0.00 93 1016.4
20260505074510 11 231 3.2 8.0 0.00 0.00 0.00 93 1016.8
20260505074007 11 218 3.2 8.0 0.00 0.00 0.00 93 1016.6
20260505073504 11 224 3.2 8.0 0.00 0.00 0.00 93 1016.6
20260505073002 11 214 4.8 9.7 0.00 0.00 0.00 93 1016.7
20260505072458 11 212 3.2 8.0 0.00 0.00 0.00 94 1016.6
20260505071954 11 222 3.2 6.4 0.00 0.00 0.00 94 1016.7
20260505071449 11 194 1.6 8.0 0.00 0.00 0.00 93 1016.5
20260505070948 11 219 8.0 8.0 0.00 0.00 0.00 94 1016.5
20260505070444 11 209 4.8 6.4 0.00 0.00 0.00 93 1016.4
20260505065940 11 225 4.8 8.0 0.00 0.00 0.00 94 1016.4
20260505065437 10 224 0.0 8.0 0.00 0.00 0.00 94 1016.5
20260505064933 10 175 0.0 8.0 0.00 0.00 0.00 94 1016.5
20260505064431 10 219 3.2 9.7 0.00 0.00 0.00 93 1016.5
20260505063929 10 206 3.2 8.0 0.00 0.00 0.00 93 1016.6
20260505063425 10 215 4.8 8.0 0.00 0.00 0.00 93 1016.4
20260505062922 10 229 3.2 8.0 0.00 0.00 0.00 93 1016.5
20260505062419 11 231 4.8 6.4 0.00 0.00 0.00 93 1016.6